Location: Ch�risy
(50.2331°N, 2.9131°E)
Time: 01:47:47
(UTC+00:00)

Cosmos 1400 Rocket - Pass Details

Date: 17 January 2021
Orbit: 520 x 568 km, 81.2° (Epoch: 24 February)

Event Time Altitude Azimuth Distance (km) Brightness Sun altitude
Rises 17:20:27 0° 344° (NNW) 2,782 6.4 -9.9°
Reaches altitude 10° 17:22:41 10° 340° (NNW) 1,878 5.6 -10.2°
Maximum altitude 17:26:44 54° 263° (W) 689 3.7 -10.8°
Drops below altitude 10° 17:30:43 10° 186° (S) 1,845 5.8 -11.4°
Sets 17:32:53 0° 181° (S) 2,729 6.6 -11.7°
